Location: Newark
(45.2500°N, 7.5833°E)
Time: 18:03:04
(UTC+00:00)

Tiros 1 despin weight - Pass Details

Date: 04 February 2020
Orbit: 594 x 642 km, 48.2° (Epoch: 23 February)

Event Time Altitude Azimuth Distance (km) Brightness Sun altitude
Rises 10:41:37 0° 285° (WNW) 2,856 ? 26.9°
Reaches altitude 10° 10:43:55 10° 288° (WNW) 1,959 ? 27.0°
Maximum altitude 10:48:24 68° 11° (NNE) 663 ? 27.2°
Drops below altitude 10° 10:52:57 10° 96° (E) 1,986 ? 27.4°
Sets 10:55:18 0° 99° (E) 2,900 ? 27.5°
